View from above orbital plane
|
View from above satellite
|
Ground track
|
The orbit data is extracted from the following two-line orbital elements,
1 39135U 13015F 21023.21883753 .00000990 00000-0 56788-4 0 9992
2 39135 64.8678 311.3773 0016449 206.9729 153.0544 15.18848038428581
Epoch (UTC): | 23 January 2021 05:15:07 |
Eccentricity: | 0.0016449 |
inclination: | 64.8678° |
perigee height: | 498 km |
apogee height: | 520 km |
right ascension of ascending node: | 311.3773° |
argument of perigee: | 206.9729° |
revolutions per day: | 15.18848038 |
mean anomaly at epoch: | 153.0544° |
orbit number at epoch: | 42858 |
The dashed part of the orbit path shows where the satellite is in the earth's shadow,
|
|